284  
ASUS42 KILM 260414  
RWRILM  
RWRILM  
REGIONAL HOURLY WEATHER ROUNDUP  
NATIONAL WEATHER SERVICE WILMINGTON NC  
1200 AM EDT MON OCT 26 2020  
 
NOTE: "FAIR" INDICATES FEW OR NO CLOUDS BELOW 12,000 FEET WITH NO  
SIGNIFICANT WEATHER AND/OR S TO VISIBILITY
.  
   
..............WFO WILMINGTON COUNTY WARNING AREA............
 
 
   
.....COASTAL NC AND SC COUNTIES...
 
 
 
CITY SKY/WX TMP DP RH WIND PRES REMARKS
 
WILMINGTON CLOUDY 64 62 93 N9 30.02F FOG  
N MYRTLE BEACH CLOUDY 65 65 100 N7 30.02R  
MYRTLE BEACH CLOUDY 65 65 100 N8 30.03S FOG  
   
.....INLAND NC AND SC COUNTIES....
 
 
 
CITY SKY/WX TMP DP RH WIND PRES REMARKS
 
LUMBERTON NOT AVBL  
ELIZABETHTOWN CLOUDY 58 57 97 N7 30.07R FOG  
WHITEVILLE CLOUDY 61 60 98 N3 30.06R  
FLORENCE CLOUDY 61 60 97 NE8 30.06S FOG  
DARLINGTON CLOUDY 59 59 100 NE9 30.07F FOG  
KINGSTREE CLOUDY 64 63 94 N3 30.03S  
HARTSVILLE CLOUDY 59 57 94 NE7 30.07R FOG  
BENNETTSVILLE CLOUDY 57 55 94 NE8 30.07S FOG  
CONWAY CLOUDY 63 63 100 N7 30.02F  
GEORGETOWN CLOUDY 64 64 100 N6 30.03S FOG  
MARION CLOUDY 61 61 100 NE6 30.05F  
   
...................REST OF NORTH CAROLINA...................
 
 
   
........EASTERN NC......
 
 
 
CITY SKY/WX TMP DP RH WIND PRES REMARKS
 
CAPE HATTERAS CLOUDY 70 67 90 N3 29.98F  
JACKSONVILLE CLOUDY 59 57 93 N5 30.04F  
MOREHEAD CITY CLOUDY 68 68 100 N9 30.01S  
KENANSVILLE NOT AVBL  
NEW BERN CLOUDY 61 61 100 N8 30.04F  
ELIZABETH CITY CLOUDY 69 67 93 N9 30.04F  
   
........CENTRAL NC......
 
 
 
CITY SKY/WX TMP DP RH WIND PRES REMARKS
 
RALEIGH DURHAM DRIZZLE 51 50 96 N8 30.12R FOG  
ROCKY MOUNT CLOUDY 53 52 96 N10 30.09S  
ROANOKE RAPIDS NOT AVBL  
FAYETTEVILLE CLOUDY 57 54 89 N12 30.07R  
HOFFMAN CLOUDY 55 55 99 NE10 30.08S  
   
........WESTERN NC......
 
 
 
CITY SKY/WX TMP DP RH WIND PRES REMARKS
 
CHARLOTTE CLOUDY 54 52 93 N12 30.11R  
GREENSBORO CLOUDY 48 48 100 NE10 30.12S FOG  
HICKORY NOT AVBL  
BOONE NOT AVBL  
ASHEVILLE NOT AVBL  
   
....................REST OF SOUTH CAROLINA..................
 
 
   
........EASTERN SC......
 
 
 
CITY SKY/WX TMP DP RH WIND PRES REMARKS
 
CHARLESTON MOCLDY 71 70 96 E5 30.01R  
BEAUFORT MCAS CLOUDY 73 71 93 N6 30.00S  
HILTON HEAD MOCLDY 72 70 94 CALM 30.01R  
   
........CENTRAL SC......
 
 
 
CITY SKY/WX TMP DP RH WIND PRES REMARKS
 
COLUMBIA CLOUDY 65 61 87 NE9 30.04S  
ORANGEBURG CLOUDY 68 66 93 NE6 30.04R  
SUMTER SHAW CLOUDY 63 61 94 NE9 30.05S  
   
........WESTERN SC......
 
 
 
CITY SKY/WX TMP DP RH WIND PRES REMARKS
 
GREENVILLE NOT AVBL  
ROCK HILL CLOUDY 55 53 93 NE7 30.10R  
ANDERSON LGT RAIN 60 58 92 NE9 30.07R  
CLEMSON NOT AVBL  
GREENWOOD CLOUDY 60 60 100 N5 30.07S FOG  
 
   
..................COASTAL AND OFFSHORE REPORTS...............
 
 
   
...............LOCAL PIERS AND NC RESERVE.............
 
 
 
STATION/POSITION TIME SKY/WX TEMP WIND PRES VSBY
 
AIR SEA DIR/SP/G  
(UTC) (F) (DEG/KT/KT) (MB) (MI)  
JOHNY MRCER PIER 0330 65 74 360/ 13/ 17 1015.8F  
NC RESRV MASNBRO NOT AVBL  
OCEAN CREST PIER NOT AVBL  
SPRINGMAID PIER 0330 66 N/A  
 
   
...............COASTAL AND OFFSHORE BUOYS.............
 
 
 
STATION/POSITION TIME SKY/WX TEMP WIND PRES VSBY
 
AIR SEA DIR/SP/G  
(UTC) (F) (DEG/KT/KT) (MB) (MI)  
DIMNDSHOAL 41025 0350 77 81 100/ 10/ 14 N/A  
WVE H/P(F/S)= 7/ 7 SWL H/P/D(F/S/D)= 7/ 70/ 7  
 
CAPE LOOKOUT 0300 70 360/ 11/ 13 1015.9R  
ONSLOW BAY 41036 NOT AVBL  
ONSLOW BAY 41064 0308 73 30/ 14/ 19 1015.5R  
ONSLOW BAY 41159 0356 77 N/A  
WVE H/P(F/S)= 4/11 SWL H/P/D(F/S/D)= 2/ 90/11  
 
MASNBO INL 41110 0337 75 N/A  
WVE H/P(F/S)= 3/ 5 SWL H/P/D(F/S/D)= 2/ 90/12  
 
WILM HARBR 41108 0330 75 N/A  
WVE H/P(F/S)= 3/12 SWL H/P/D(F/S/D)= 2/130/12  
 
27SE WRITB 41037 0308 72 76 10/ 14/ 19 1016.1R  
FRYING PAN 41013 0350 74 81 40/ 14/ 17 1014.6F  
WVE H/P(F/S)= 5/11 SWL H/P/D(F/S/D)= 3/110/11  
 
SUNST NRSH 41024 0308 64 75 40/ 12/ 16 1016.4R  
CAPRS NRSH 41029 0308 73 75 40/ 12/ 16 1015.7R  
EDISTO 41004 0350 77 81 30/ 14/ 16 1015.3R  
 
   
.........OFFSHORE BUOYS BEYOND 100 NM OFFSHORE........
 
   
....IN A TRIANGLE---HAT TO BERMUDA TO BAHAMAS TO HAT..
 
 
 
 
STATION/POSITION TIME SKY/WX TEMP WIND PRES VSBY
 
AIR SEA DIR/SP/G  
(UTC) (F) (DEG/KT/KT) (MB) (MI)  
150E HAT 41001 0400 76 79 130/ 16/ 21 1014.3  
W BERMUDA 41048 0400 72 80 200/ 12/ 17 1018.6  
ATLANTIC S 41049 0400 81 120/ 12/ 14 1021.4  
E BAHAMAS 41046 0400 84 84 120/ 14/ 16 1018.3  
NE BAHAMAS 41047 0400 83 1018.5  
120E CANVRL41010 0400 79 81 200/ 14/ 17 1014.6  
 
END  
 
 
CLICK HERE TO GO TO PREVIOUS BULLETINS.

The Nexlab NC Page
The Nexlab SC Page Main Text Page